Theta_e
302 302 303 304 305 309 311 312 314 316 319 320 320 321 322 323 321 321 322 323 323 321 320 321 320 317 315 317 318 316 315 316 319 320 322 324 324 326 326 328 330 329 329 329 330 326 328 325 323 319 316 313 311 308 307 305 303 301 300 298 296 294 293 293 292 291 289 288 287 286 286 287 289 286 286 286 286 286 286 287 287 287 285 286 286
302 301 301 302 302 304 305 308 310 312 314 318 319 320 321 321 321 322 321 321 322 322 321 321 321 321 320 319 319 315 313 314 316 317 320 320 321 322 324 327 329 330 326 328 328 328 327 325 322 319 317 314 312 310 307 305 303 301 299 297 296 294 293 293 292 291 289 287 285 285 286 285 286 285 286 285 285 285 286 287 287 286 286 285 285
298 301 302 302 302 302 303 305 309 313 313 315 318 318 318 319 320 320 320 320 321 321 320 320 320 318 318 312 315 309 309 312 312 315 315 318 319 320 321 324 326 329 329 328 329 328 327 325 323 321 317 314 312 310 307 305 303 301 299 297 295 295 294 294 292 293 289 288 288 285 282 282 285 284 284 285 285 285 285 286 287 286 286 285 285
299 300 301 301 301 302 301 302 305 308 308 308 309 313 316 317 318 318 318 319 319 318 316 316 313 310 309 308 309 312 309 307 310 309 313 314 317 318 320 322 324 325 327 328 328 328 327 326 324 321 318 315 314 310 307 305 303 301 299 298 296 293 292 292 293 293 291 288 285 286 283 283 280 281 282 283 285 285 287 286 286 286 286 285 284
300 300 300 300 300 301 302 303 302 304 306 308 308 310 314 314 315 315 315 316 315 313 312 310 310 308 307 307 306 306 307 308 308 309 312 314 317 318 320 321 323 323 325 327 324 326 325 325 323 321 319 316 314 311 308 306 303 301 300 298 297 295 292 292 292 293 292 293 291 285 283 284 283 281 282 282 284 284 284 286 287 286 286 285 284
299 300 302 302 302 301 300 299 301 302 304 306 307 309 310 310 311 311 312 312 313 310 310 311 311 310 308 308 307 306 308 307 310 312 311 312 316 315 314 320 321 322 324 326 326 324 323 323 323 321 319 317 315 313 310 306 303 301 300 299 297 297 295 293 291 293 294 292 293 295 289 288 285 284 283 279 284 284 284 285 286 286 285 285 284
298 299 300 300 300 300 300 300 301 301 303 303 303 305 306 308 309 310 311 311 311 310 310 310 310 310 310 311 310 309 309 308 306 306 309 307 310 312 314 315 319 319 319 323 322 322 324 322 321 321 320 317 314 313 310 307 305 302 300 300 299 299 297 294 292 292 294 293 293 294 295 292 289 284 281 279 279 281 283 283 284 285 285 284 284
298 300 299 301 302 302 301 301 300 302 302 301 303 304 305 307 308 309 310 309 310 310 310 311 311 310 309 309 309 308 308 308 306 307 306 308 309 310 311 312 314 316 317 318 321 321 320 320 321 319 319 318 314 313 311 309 306 304 301 302 301 300 298 297 294 294 292 292 293 292 292 290 287 287 285 285 281 279 280 282 282 284 284 284 284
299 300 300 299 301 301 300 300 301 300 300 302 303 304 304 305 307 308 309 309 309 310 310 310 311 310 310 309 307 307 307 306 305 306 307 306 307 306 309 311 313 315 317 316 317 319 318 321 319 319 318 317 313 314 313 310 306 304 302 301 301 300 299 299 297 294 294 294 292 292 292 289 288 289 286 284 282 281 282 281 282 283 282 282 284
300 300 299 298 299 300 300 301 300 301 301 302 302 303 304 304 306 307 308 309 309 309 310 310 310 309 309 308 308 306 304 304 304 305 306 305 307 306 307 310 312 313 314 316 314 316 317 318 318 318 317 317 312 315 313 310 307 305 302 301 301 300 300 299 298 297 295 297 295 293 293 289 288 288 285 285 284 286 283 281 282 282 281 282 283
298 299 299 299 298 298 299 300 300 298 299 301 302 303 303 304 305 306 307 308 308 309 309 309 309 309 309 308 307 306 304 305 304 304 304 304 306 307 307 309 310 311 312 311 312 313 314 314 316 317 317 313 311 314 313 311 309 306 304 302 301 301 300 299 299 298 296 297 297 296 295 292 291 289 287 287 286 281 282 282 281 282 281 280 281
298 298 299 298 298 297 297 299 298 299 298 300 301 302 303 304 305 305 305 306 307 308 308 309 309 308 309 308 307 307 305 306 306 305 304 305 305 306 307 307 308 309 310 310 309 309 310 312 313 315 314 314 313 313 313 312 310 307 305 303 302 301 301 300 299 298 298 297 297 297 296 296 295 294 292 289 289 286 286 282 281 280 280 279 280
297 297 297 297 297 297 297 297 296 298 300 300 301 302 302 303 304 305 305 305 307 307 308 308 307 308 308 307 307 306 306 306 306 306 305 305 305 305 305 307 308 307 308 308 309 307 307 308 310 312 313 313 312 312 312 310 308 306 305 303 303 301 301 300 299 299 299 297 297 298 297 297 296 295 294 291 291 288 286 281 281 282 280 280 280
297 297 296 296 296 297 296 296 298 299 299 300 300 301 302 303 303 304 305 305 305 306 307 307 307 308 307 307 307 305 305 306 306 306 305 306 306 306 306 307 307 307 307 307 309 307 305 307 308 309 311 312 311 311 311 310 308 307 305 303 302 302 301 300 300 300 300 299 298 297 296 297 296 293 292 292 288 286 284 283 281 280 281 281 280
295 296 298 298 298 296 297 297 296 298 299 299 299 300 301 302 303 303 303 304 304 305 306 307 307 306 306 306 306 305 306 306 306 306 306 305 305 306 306 306 307 307 307 307 307 307 305 305 305 306 307 309 309 310 309 308 307 306 304 303 303 302 301 300 300 299 299 299 298 298 296 296 296 293 292 291 290 289 287 284 282 280 280 280 279
297 297 298 298 299 299 298 297 297 296 296 297 298 300 301 302 302 303 304 304 304 304 305 306 306 306 306 305 305 304 304 304 304 304 305 306 306 306 306 306 306 305 304 304 305 305 305 304 303 304 304 305 307 309 308 307 306 305 303 302 301 302 301 299 300 299 299 299 298 298 297 295 295 293 291 291 290 289 288 286 285 284 281 278 278
297 298 299 300 297 297 299 298 297 296 296 298 299 300 301 302 302 302 302 302 303 304 305 305 305 304 304 305 305 304 303 304 305 304 304 303 304 304 305 305 305 304 303 303 303 304 304 304 303 303 303 303 304 306 306 306 305 303 302 301 301 298 299 299 299 298 298 298 297 296 297 296 293 292 290 289 288 288 288 286 286 285 284 281 277
297 298 298 298 298 299 300 300 299 299 298 298 299 299 301 301 301 302 301 302 303 304 304 304 304 304 304 304 304 304 304 304 304 304 303 303 302 302 302 303 303 303 303 302 303 301 301 300 301 299 299 299 301 301 303 303 302 301 301 301 301 299 298 296 295 296 296 294 294 293 292 290 289 287 288 288 287 288 286 286 285 285 285 284 280
296 297 297 298 298 299 299 299 299 298 298 298 298 298 299 299 300 301 302 302 302 303 303 303 303 304 304 303 303 303 304 304 303 302 302 303 303 302 301 302 301 301 301 300 299 296 296 296 296 296 295 296 296 296 297 298 299 299 296 296 295 295 295 294 293 294 294 293 292 291 289 289 286 286 286 285 286 286 285 285 284 283 283 284 282
295 295 297 298 299 299 299 298 297 298 297 296 296 296 298 299 299 300 300 300 300 301 302 302 302 303 303 301 301 303 302 302 302 301 301 301 302 302 301 298 301 299 299 298 297 297 296 295 294 294 294 294 294 294 294 295 294 296 295 295 294 294 294 294 293 291 292 291 291 290 288 287 285 285 285 284 284 284 284 283 282 282 282 282 282
295 295 296 298 298 298 297 295 295 293 294 294 295 297 298 297 299 299 300 300 300 301 301 302 301 301 299 300 300 299 299 300 298 299 300 300 300 299 299 299 294 295 295 297 298 298 297 296 295 294 294 293 293 293 293 293 293 294 293 294 293 293 294 293 292 290 290 290 289 289 287 286 286 285 285 284 284 284 282 282 282 282 281 281 282
297 296 296 296 295 295 294 292 292 293 292 292 293 294 295 297 299 299 299 299 300 300 301 301 300 301 299 299 298 296 298 297 297 296 296 296 296 296 295 292 294 294 295 297 297 297 296 296 295 295 294 293 293 293 292 292 293 293 293 294 293 293 293 292 291 291 289 289 289 288 286 285 285 285 284 284 284 282 282 281 281 281 281 281 281
299 298 298 296 296 294 293 293 293 293 293 291 291 294 296 295 296 297 298 299 298 299 297 298 299 298 298 297 296 295 296 294 294 294 294 293 293 292 291 294 294 293 293 296 296 296 295 295 295 294 294 293 293 292 291 292 292 293 293 292 293 293 293 292 291 291 289 288 288 287 286 285 285 284 284 284 283 282 282 281 280 280 280 280 280
295 295 294 294 292 291 291 292 292 293 292 293 293 292 294 296 297 297 297 297 296 296 295 296 297 297 296 293 294 294 293 294 294 294 293 292 291 291 290 292 293 293 293 293 295 295 294 294 294 293 292 292 292 292 291 291 292 292 293 292 292 292 293 292 292 291 289 288 288 287 285 285 284 284 283 283 282 282 281 281 280 280 280 280 280
296 297 296 294 292 294 295 294 294 293 292 292 293 295 295 296 296 296 298 296 296 294 295 296 296 295 293 292 293 292 293 293 293 292 292 291 290 290 290 291 291 291 291 292 293 293 293 292 292 292 291 291 291 291 291 291 291 292 292 292 291 291 291 291 292 291 289 288 288 287 285 284 284 283 282 282 282 282 281 281 280 280 280 280 280
297 297 298 298 298 295 294 292 293 293 294 294 294 295 296 296 297 296 297 295 295 293 296 297 296 295 294 292 293 292 293 293 293 291 291 290 290 290 291 290 290 291 290 291 292 292 292 292 292 291 291 291 291 291 291 291 291 291 291 291 290 290 290 290 290 289 289 288 287 286 285 284 284 283 282 282 282 281 281 281 280 280 280 280 280
296 298 299 296 295 297 298 296 294 293 293 294 295 295 295 295 295 294 295 294 294 294 295 296 295 293 294 294 293 293 293 292 292 291 290 290 290 290 290 290 289 290 290 289 289 291 290 291 291 290 290 290 290 290 290 290 290 290 291 290 290 290 289 289 289 288 288 287 287 286 285 284 284 283 282 281 281 281 281 281 281 280 280 280 280
294 296 297 299 299 298 296 296 295 296 296 295 295 295 295 295 295 294 293 293 295 293 294 294 293 293 294 295 294 292 291 291 291 290 290 290 290 290 290 289 288 289 289 289 289 289 289 289 289 289 289 289 288 288 289 289 289 290 290 289 289 288 288 288 288 287 287 287 287 286 285 284 284 283 282 282 282 282 282 281 281 281 281 281 280
295 297 298 297 297 298 297 297 297 296 296 297 297 296 294 293 294 294 292 293 293 293 293 294 293 293 295 296 293 291 291 290 290 290 290 290 290 290 289 289 288 288 288 288 288 289 288 288 288 288 287 287 287 287 288 288 288 288 289 289 288 288 288 287 286 286 285 285 285 284 284 283 283 283 283 283 283 283 282 281 281 281 282 282 281
295 296 297 297 297 297 296 297 297 297 298 298 297 297 296 296 295 294 292 293 289 292 293 293 293 294 295 295 292 291 291 290 290 291 290 290 290 289 289 288 288 288 287 287 286 287 287 287 287 286 286 286 286 287 287 288 289 288 288 288 288 287 287 286 285 284 283 283 283 283 283 283 283 283 283 284 285 285 285 283 282 282 282 282 281
296 295 295 295 295 295 295 296 297 298 298 299 299 298 297 296 295 294 294 293 291 292 292 293 294 295 295 293 291 291 291 290 291 290 289 289 289 289 288 287 287 286 287 286 286 286 286 287 287 286 286 286 286 286 287 290 290 290 288 287 287 287 286 285 284 283 282 281 281 281 281 282 282 282 283 285 287 287 287 286 286 285 285 283 281
295 295 295 295 295 295 295 296 297 297 298 298 299 299 298 297 296 295 295 292 290 291 292 293 293 293 292 292 292 291 290 291 290 290 289 288 288 288 287 287 286 285 285 285 285 286 287 287 287 286 286 286 286 287 289 290 290 290 288 286 286 286 285 284 284 283 282 281 280 280 280 281 281 282 283 284 285 286 286 286 286 286 286 286 286
297 296 296 295 296 296 296 296 295 296 297 297 298 297 298 299 298 298 293 289 291 291 292 292 292 292 291 291 290 290 290 290 290 289 288 287 287 287 287 286 285 285 284 284 285 285 286 286 286 286 285 285 285 287 289 289 290 290 289 287 285 285 285 284 283 282 281 281 280 280 280 281 281 283 284 284 284 284 286 286 286 286 286 287 287
295 296 296 297 297 297 297 295 295 296 296 297 295 296 298 298 298 296 291 291 291 291 291 292 291 290 290 289 289 289 289 289 288 287 287 287 287 287 286 286 285 284 284 284 285 285 286 285 285 285 285 285 285 286 289 289 289 290 290 288 285 285 284 284 282 282 281 281 281 280 280 280 282 283 284 284 284 284 284 284 284 283 283 285 287
295 296 297 296 296 296 295 295 296 295 293 293 294 294 294 294 295 294 292 291 290 290 290 290 290 289 288 289 289 289 289 288 287 287 287 287 287 286 285 284 284 284 284 284 285 285 285 285 285 285 285 284 284 287 289 289 290 290 290 289 285 284 284 283 282 281 281 281 281 281 281 282 283 283 283 284 284 284 283 283 282 282 282 282 282
295 294 295 295 294 294 294 294 293 292 292 291 293 293 291 294 291 291 291 289 289 289 289 288 289 288 288 288 288 288 288 287 286 286 286 286 285 285 284 283 282 282 282 283 285 285 285 284 284 284 284 284 283 287 289 289 289 289 290 285 284 284 283 282 281 280 281 281 281 281 282 283 283 282 284 285 285 283 282 281 280 280 279 279 280
294 294 294 293 291 291 292 290 291 292 292 293 291 288 289 290 289 289 287 287 287 288 289 289 288 288 287 287 288 288 287 286 285 285 285 285 284 283 282 282 282 281 282 283 284 284 284 284 284 284 284 284 283 286 288 288 289 290 288 283 283 283 282 281 280 280 280 280 281 282 283 282 282 281 285 286 286 284 281 280 279 278 278 279 279
293 292 290 290 290 289 290 290 290 290 291 289 288 287 287 288 288 286 285 286 286 288 289 288 288 287 286 286 286 287 287 285 284 285 285 284 283 283 282 282 282 281 281 282 283 284 284 284 284 283 284 283 283 285 288 288 288 289 287 284 283 282 281 280 280 279 279 279 280 282 282 281 281 282 286 287 287 283 281 280 279 278 278 277 277
291 291 291 290 290 289 288 288 289 290 292 288 286 286 287 289 288 286 284 286 287 288 287 287 287 285 285 285 285 286 286 285 284 284 284 283 282 282 280 280 281 281 281 281 283 283 283 283 283 283 284 283 283 284 287 288 288 289 287 284 283 281 280 279 279 278 279 279 279 281 282 282 282 284 288 288 286 283 281 280 280 279 277 277 277
291 291 291 290 287 286 288 289 289 290 288 285 284 285 286 288 288 284 285 287 288 288 286 283 283 284 284 284 284 285 284 284 284 283 282 282 280 279 279 280 279 280 280 281 283 283 282 282 282 282 283 283 283 284 286 288 288 289 287 283 282 280 279 279 278 278 278 279 279 280 282 284 286 288 288 288 286 285 282 281 280 278 277 277 278
289 290 289 289 290 289 288 287 288 287 285 284 283 285 287 286 285 284 286 287 285 283 282 282 282 281 281 282 281 283 283 281 282 282 281 279 279 279 279 279 279 280 281 281 281 282 281 281 281 282 282 282 283 283 285 288 288 288 286 284 281 281 280 279 278 278 279 279 279 280 281 285 288 288 288 288 287 286 283 281 280 278 278 279 280
290 289 288 288 288 288 288 288 286 284 283 283 283 285 286 285 284 285 286 282 281 281 281 281 280 280 280 280 279 279 280 280 279 280 279 277 276 278 279 279 280 281 281 281 281 281 280 280 280 281 281 281 283 284 284 287 288 288 286 285 282 281 281 279 279 279 279 279 280 281 282 286 288 288 288 287 287 286 284 280 281 283 284 283 280
289 289 289 287 286 287 287 286 286 283 282 282 281 283 284 284 283 285 282 280 281 280 280 279 279 279 278 277 277 277 279 279 279 279 278 277 277 278 278 280 281 281 281 280 280 279 279 279 279 279 280 281 283 284 285 285 287 287 286 285 284 283 283 281 279 279 279 280 280 281 284 286 287 287 287 287 287 286 284 282 285 284 284 283 280
288 286 286 285 285 286 286 286 284 283 281 281 281 283 284 283 283 281 279 280 279 279 278 278 277 276 276 276 276 277 278 278 278 278 278 277 277 278 279 280 280 280 280 279 279 279 278 278 277 278 279 280 282 283 284 285 285 287 286 286 285 285 284 281 281 280 281 281 281 281 284 286 286 286 287 286 285 283 283 284 284 283 281 279 274
287 287 285 283 284 284 284 285 285 281 280 280 279 281 282 282 280 279 279 279 278 278 278 277 276 275 276 275 276 277 277 276 276 278 277 277 277 277 277 278 280 280 279 278 278 278 278 277 277 278 279 280 281 282 283 284 285 285 286 286 285 285 285 285 282 282 282 282 283 285 286 286 286 286 286 285 284 283 283 282 281 280 276 272 271
288 287 285 283 283 282 283 283 284 282 280 279 280 279 281 281 279 279 278 277 277 277 276 276 275 275 275 276 276 275 275 275 275 276 277 277 277 277 277 277 279 279 279 278 278 278 277 277 277 278 278 279 280 282 282 284 285 285 286 287 287 286 285 284 283 283 284 286 286 286 286 285 285 283 280 278 278 279 281 280 279 276 271 270 269
287 287 284 283 282 283 283 283 282 282 277 278 276 278 279 278 277 277 277 276 276 276 276 275 275 276 275 276 276 276 275 276 275 275 276 276 277 277 277 277 278 278 278 278 278 277 277 277 277 277 278 278 279 281 281 282 284 284 284 284 283 283 284 284 283 284 284 284 284 283 282 282 280 280 279 279 279 279 276 274 272 271 270 269 269
287 285 283 281 282 281 281 281 281 282 277 276 275 276 276 275 275 276 275 275 276 276 276 275 275 276 277 277 277 278 278 277 277 278 277 276 276 277 278 278 278 278 278 278 278 277 277 277 276 277 277 278 278 279 280 282 283 283 282 282 282 281 281 281 281 281 280 280 280 281 280 278 278 277 275 273 272 270 271 271 269 268 269 270 271
287 286 282 282 282 281 281 280 280 279 275 274 274 273 273 274 275 275 275 276 276 277 276 275 276 278 278 279 279 279 279 279 279 279 278 277 279 279 280 280 280 281 280 279 278 278 278 278 277 277 277 277 277 278 279 283 281 283 281 280 279 279 279 279 279 280 277 277 276 275 274 274 274 273 271 270 270 269 268 268 267 266 265 266 264
287 285 282 280 280 279 279 279 279 275 273 273 272 272 272 273 273 275 276 278 278 278 276 277 278 279 279 279 279 279 279 279 279 279 279 279 281 282 281 280 280 282 283 282 281 279 279 278 277 277 278 278 278 279 282 284 284 283 283 282 281 281 280 279 281 281 278 275 274 273 273 272 271 271 270 270 269 268 267 266 265 269 264 262 262
286 284 284 283 282 279 277 277 277 273 272 271 272 271 273 273 274 276 279 280 279 279 279 279 279 280 280 280 279 279 279 279 279 279 279 278 279 281 283 283 283 282 283 283 282 282 282 280 278 277 279 281 282 282 283 284 284 284 283 283 282 282 282 282 281 277 274 273 272 271 271 271 271 270 270 270 269 268 267 266 264 263 261 264 262
Wind_Speed
9 9 10 12 12 11 10 9 9 9 9 10 11 12 12 13 12 13 11 10 10 9 9 10 10 7 5 9 10 8 8 7 8 7 8 8 7 8 8 8 9 10 9 9 10 10 10 9 9 10 10 10 11 12 12 13 12 12 10 9 12 10 6 6 7 10 11 5 4 4 5 3 4 4 4 4 4 4 4 6 4 5 4 4 3
3 4 6 6 7 7 7 7 7 10 10 11 13 15 14 11 13 13 9 10 12 12 11 11 11 12 12 12 9 7 7 7 8 7 8 7 8 7 6 7 9 9 9 8 9 10 10 10 10 11 11 10 10 11 13 13 13 11 9 8 6 10 8 9 9 11 4 8 8 3 3 3 3 3 3 3 3 4 4 5 4 5 5 4 3
6 8 6 8 9 8 8 8 9 13 13 13 13 11 10 11 11 10 10 11 11 11 10 12 10 7 8 5 7 4 3 4 4 4 5 7 7 7 7 7 8 9 10 10 9 9 10 10 10 10 11 10 10 8 8 9 11 14 14 13 10 6 6 8 10 7 5 5 5 7 3 4 1 1 1 2 3 3 3 4 4 5 5 4 4
10 10 9 7 8 9 7 8 11 8 7 6 5 8 8 10 9 10 10 10 9 9 9 6 5 3 3 3 4 5 5 3 4 4 5 6 7 7 7 7 8 8 8 9 10 10 10 11 11 11 11 10 11 11 11 10 9 9 10 10 11 11 7 10 11 7 7 13 6 3 4 3 2 8 7 3 4 4 4 4 4 5 5 4 4
11 9 6 4 6 9 13 12 7 8 8 9 9 9 9 10 9 8 7 8 6 5 5 5 5 4 3 3 3 2 1 3 4 6 6 6 6 8 9 7 7 8 9 10 8 10 10 10 11 11 12 12 11 11 12 13 13 12 13 12 13 13 10 8 10 8 8 7 6 8 2 1 7 3 8 2 2 3 4 4 4 5 5 6 5
9 10 10 10 11 8 6 5 7 7 8 9 8 8 7 7 6 6 6 7 7 6 7 7 7 8 7 7 7 6 8 7 12 14 10 10 11 5 5 8 7 7 7 9 13 10 9 10 10 11 12 11 12 11 11 11 14 14 14 13 14 13 15 12 11 10 8 11 8 2 5 7 7 6 9 6 2 3 4 5 6 6 5 6 5
4 4 2 4 5 5 6 7 7 8 9 5 5 6 6 6 7 8 8 7 8 7 9 8 8 8 11 11 9 10 10 9 5 3 7 5 4 7 7 7 9 9 7 7 7 11 13 11 11 11 12 11 11 10 11 13 13 14 12 13 14 12 10 13 15 13 7 9 9 8 4 3 8 10 7 7 3 3 3 4 5 5 5 6 6
5 5 4 6 7 10 12 9 7 10 6 5 5 5 7 8 8 8 7 8 8 8 10 10 11 10 10 10 10 10 11 10 8 6 4 6 6 7 6 7 7 8 7 7 8 10 9 9 11 11 11 12 11 11 12 11 10 10 13 14 12 11 13 13 13 11 14 12 12 9 2 0 6 2 7 11 7 8 6 2 2 6 5 5 7
6 6 6 6 8 8 6 7 7 5 5 7 7 7 7 6 7 7 8 8 8 10 11 10 11 11 11 9 10 9 8 7 5 6 6 6 6 5 6 6 7 8 9 8 7 7 11 13 11 10 11 11 12 11 10 11 13 13 12 11 10 11 11 12 11 13 13 12 10 8 4 4 3 1 5 5 5 6 3 9 7 2 3 4 6
1 2 2 4 6 6 6 5 5 7 6 6 5 5 6 6 7 8 9 8 9 10 11 11 11 10 10 11 12 9 6 5 5 6 7 6 8 7 7 7 7 8 10 10 7 7 8 9 12 13 12 11 11 13 12 12 13 13 15 15 15 15 12 11 13 12 13 12 12 11 8 5 3 2 3 4 3 3 8 10 9 11 11 8 5
3 2 1 2 1 4 5 7 7 5 5 6 6 6 6 7 7 9 9 8 8 10 10 11 10 10 11 11 12 11 9 8 8 7 7 7 9 9 9 8 8 8 7 9 10 8 7 9 10 11 11 10 10 11 12 13 13 14 14 15 15 15 12 12 10 9 10 10 9 9 11 12 13 13 10 8 7 5 4 5 7 9 7 5 7
2 3 2 2 3 2 3 5 5 5 5 6 6 6 7 7 7 8 7 8 8 9 9 10 10 10 9 10 12 11 10 10 11 11 10 10 10 10 8 7 8 8 8 8 9 9 8 8 9 9 10 10 11 11 11 12 12 13 13 14 13 13 11 10 10 9 9 8 7 8 9 7 5 4 6 9 9 7 9 8 8 4 1 4 2
4 4 3 2 4 5 5 6 5 5 8 7 7 6 6 6 8 9 9 8 9 8 10 10 10 11 11 10 10 9 10 11 11 11 9 10 9 8 8 9 8 9 9 10 11 10 9 8 8 9 9 9 10 10 10 11 10 10 9 10 12 13 13 13 12 13 13 12 12 10 9 8 8 5 4 9 4 5 8 6 3 6 5 5 3
2 2 3 4 4 5 5 5 7 7 7 8 6 6 6 7 8 9 10 8 7 8 10 10 11 11 9 10 10 9 11 11 11 11 10 9 9 10 11 10 10 11 10 11 10 9 8 8 8 9 9 9 10 11 11 12 12 12 13 13 14 13 13 14 14 14 12 13 11 10 10 10 10 8 8 7 8 8 7 10 9 3 2 5 1
3 5 5 5 6 5 6 6 6 7 7 7 6 6 6 7 8 10 9 8 8 10 9 11 10 10 10 10 10 9 10 10 10 9 10 10 9 10 10 9 10 9 10 9 8 9 9 8 8 8 8 8 9 10 10 9 10 10 10 11 11 10 11 11 11 11 11 11 10 10 10 10 10 9 6 8 7 8 9 10 12 10 3 2 3
5 5 6 7 8 7 7 6 6 5 5 4 6 7 8 9 9 10 11 10 10 9 10 11 10 9 10 11 11 10 9 8 8 8 9 9 10 10 10 10 9 8 8 8 9 9 10 10 8 9 7 7 8 10 10 10 10 10 9 9 11 9 11 12 13 13 14 14 14 12 10 11 10 10 9 8 8 8 8 10 11 12 12 5 3
5 6 6 6 4 5 6 6 6 6 6 9 10 9 10 9 9 10 9 7 10 10 11 10 10 10 11 10 9 9 10 11 11 10 9 8 8 8 8 9 8 8 8 8 9 9 9 9 9 9 8 7 8 9 9 10 10 10 10 10 11 8 9 12 11 11 12 12 10 12 12 10 10 9 8 7 7 7 8 10 11 13 10 10 8
5 5 5 5 6 7 7 7 8 9 10 9 10 8 8 8 9 10 9 11 11 10 10 10 11 11 10 11 11 11 11 11 10 9 8 8 7 7 7 8 9 8 8 7 8 10 9 10 9 8 8 7 8 7 8 9 9 9 10 10 10 9 10 8 8 9 10 8 9 8 7 6 6 7 8 8 8 9 8 10 10 8 10 11 9
4 5 5 6 7 7 8 9 8 7 7 8 6 6 6 6 7 8 11 11 10 9 8 8 9 9 9 11 11 11 10 9 8 7 7 9 10 8 9 8 7 7 8 7 7 8 8 8 7 7 6 7 6 6 6 6 8 9 8 7 6 7 7 8 7 8 8 9 9 10 8 8 7 8 7 7 7 8 8 6 6 6 7 9 10
4 3 5 7 8 7 7 7 7 7 7 6 5 5 7 8 7 8 7 6 7 10 10 11 11 9 9 8 9 9 9 9 8 8 9 9 9 8 8 6 8 7 7 7 8 9 9 9 8 7 7 7 7 6 6 5 5 6 7 7 7 8 9 9 8 6 6 8 9 10 9 8 8 7 7 7 7 6 7 7 7 6 5 7 9
3 3 4 6 6 6 6 5 5 4 3 3 4 6 6 5 7 7 10 10 10 10 9 11 8 10 9 11 10 9 9 8 7 8 9 9 7 7 7 7 5 7 7 8 8 8 9 9 9 9 9 8 8 7 6 6 6 6 5 7 6 7 8 7 7 6 5 8 9 10 9 8 9 10 8 7 6 6 7 6 7 7 6 6 8
7 5 4 3 2 4 5 4 2 2 4 4 4 4 5 6 7 7 8 10 10 10 10 9 8 9 10 10 9 7 8 8 8 8 9 9 8 8 7 5 7 7 7 9 9 7 7 8 9 9 9 8 8 8 7 7 7 7 7 7 7 8 8 7 7 8 7 7 8 9 9 8 8 10 9 8 7 8 8 8 7 8 7 6 7
7 7 7 5 2 3 4 4 5 5 5 5 5 5 6 6 7 8 9 12 7 7 5 5 7 8 11 9 8 9 8 9 10 9 9 8 7 7 6 8 7 6 7 8 9 8 8 8 8 8 8 8 8 7 6 7 7 9 9 8 8 9 10 9 9 9 9 8 8 9 9 8 6 8 8 7 6 7 6 8 8 7 8 7 6
7 6 5 5 4 3 2 4 5 5 6 7 7 6 6 7 9 8 11 12 7 7 6 6 7 9 7 6 9 8 9 10 11 9 9 7 7 7 6 7 7 7 8 7 7 8 8 8 8 8 8 8 8 7 7 7 9 9 9 9 8 8 9 10 11 10 10 10 11 10 9 10 9 10 9 7 6 5 7 6 7 6 8 7 6
8 8 8 7 6 7 7 5 6 7 6 6 8 9 9 11 9 11 12 9 8 6 6 8 8 10 8 8 9 8 10 11 11 8 9 8 7 7 6 7 7 7 6 6 6 6 7 8 8 8 8 8 8 8 9 8 8 8 8 8 8 8 8 9 10 10 10 11 11 12 11 9 9 10 8 8 8 8 8 8 7 7 8 7 7
7 8 9 10 8 7 7 7 7 7 9 9 9 10 10 11 13 12 11 8 8 6 9 10 9 9 9 9 10 8 11 12 10 9 9 8 8 8 8 7 7 8 6 6 7 7 7 8 8 8 8 9 8 8 9 9 9 8 7 6 6 7 7 7 8 8 10 10 10 9 10 10 10 11 10 8 9 9 9 8 8 7 7 6 8
8 8 9 8 8 10 10 7 6 6 8 8 8 9 10 10 11 9 8 8 9 8 9 9 9 8 8 10 10 11 10 9 9 8 7 7 8 8 8 8 7 8 8 7 6 7 7 8 8 8 8 8 8 8 8 8 7 7 8 8 8 7 7 7 7 8 9 9 9 9 10 11 11 10 11 11 11 12 11 11 10 10 8 9 8
8 9 10 11 11 9 9 9 8 9 8 7 7 9 9 8 11 8 8 9 9 9 8 8 8 9 10 12 11 9 8 9 7 6 8 8 8 8 8 7 7 8 8 8 8 8 7 7 8 8 8 7 7 7 7 7 7 8 8 8 8 8 7 7 6 7 8 10 10 10 11 12 12 12 12 11 11 10 9 10 9 9 9 9 8
9 10 9 8 9 9 9 9 10 9 10 11 10 9 7 8 9 9 8 12 10 9 11 10 9 10 13 13 8 7 7 8 8 7 8 8 8 8 7 7 7 8 7 8 7 7 8 7 6 7 7 7 8 8 7 8 8 8 8 9 9 9 9 8 7 7 7 8 8 9 10 11 11 13 17 16 15 13 11 10 8 9 9 9 7
10 8 8 8 10 10 10 10 10 11 11 11 11 10 10 9 10 8 8 10 6 10 9 10 12 14 13 10 8 7 8 8 8 10 9 8 8 8 8 8 8 8 7 7 6 7 7 8 8 7 7 7 7 6 9 13 10 8 8 7 7 8 8 8 8 8 8 8 9 9 10 15 15 17 17 16 14 12 13 12 11 9 9 8 8
9 7 7 8 9 10 10 11 12 12 12 12 11 10 9 8 9 9 10 10 8 9 9 10 13 13 13 9 8 9 8 9 10 8 8 8 8 7 8 7 7 7 8 7 7 8 7 7 8 8 8 7 7 7 12 12 13 12 9 8 9 8 8 8 9 10 10 10 8 7 8 12 15 14 14 17 13 9 10 10 12 11 10 12 10
7 7 7 8 8 9 10 11 11 11 11 11 11 11 9 9 10 10 12 6 7 9 11 12 13 10 8 9 10 9 9 10 8 10 8 7 7 7 8 8 7 8 7 7 8 8 8 8 7 8 8 8 7 8 12 13 13 13 10 9 8 7 8 9 9 9 8 9 9 9 8 9 10 13 12 12 14 14 11 12 12 11 11 8 10
11 10 9 8 9 9 9 9 7 9 10 12 11 10 11 12 11 12 6 5 8 10 11 11 11 10 10 9 7 8 9 9 9 7 6 6 7 7 8 7 9 8 7 8 8 8 8 8 8 9 8 8 7 10 12 14 14 14 13 10 6 7 8 8 9 9 9 9 9 9 9 8 9 15 14 13 11 11 12 13 12 11 9 9 7
10 10 11 9 8 8 7 7 7 9 9 10 9 9 12 11 11 9 5 8 8 10 10 11 10 9 9 7 7 8 9 8 6 6 7 8 8 9 8 7 6 6 8 8 7 8 8 8 9 9 8 7 7 10 15 16 15 15 14 10 6 7 7 8 9 10 9 11 12 12 11 10 10 11 10 11 10 9 9 8 7 5 4 4 5
8 10 10 9 8 8 8 8 8 7 7 6 9 8 9 9 10 9 7 7 7 8 8 9 9 8 6 8 8 8 8 7 7 7 8 8 9 7 7 7 8 9 9 9 9 8 7 7 7 7 6 6 6 10 14 14 14 15 15 11 6 6 6 7 9 10 11 12 12 12 13 14 13 11 9 11 11 10 9 7 6 5 4 2 2
7 8 9 8 8 9 9 9 8 7 7 6 8 8 6 10 6 7 8 6 7 7 8 7 9 8 8 7 8 8 7 6 7 7 8 8 7 8 9 7 7 6 5 5 5 6 7 7 7 7 6 6 5 11 12 13 13 14 14 8 7 7 7 7 8 9 9 10 11 12 13 13 12 11 11 14 11 10 9 9 8 5 4 3 2
10 8 9 8 7 8 9 8 9 9 9 9 7 5 6 7 6 6 5 5 5 8 9 9 9 8 8 7 7 8 7 7 7 8 8 8 7 7 6 6 7 7 7 7 7 7 6 7 7 7 7 6 5 10 13 13 13 15 10 7 8 7 7 7 7 8 8 9 10 11 12 12 12 10 14 16 16 13 9 9 8 7 5 4 3
9 9 7 8 8 9 10 8 9 11 10 8 7 6 5 6 7 5 4 5 5 10 9 7 8 6 6 6 6 7 7 7 7 8 7 6 6 5 7 7 9 8 8 7 6 6 6 6 8 8 7 7 6 8 13 13 13 15 10 8 7 7 7 7 6 7 7 7 9 13 10 11 11 11 16 16 16 12 10 9 9 8 7 5 3
8 10 11 11 10 9 10 10 10 12 12 7 7 6 5 8 7 6 5 6 9 9 7 8 7 5 5 6 7 7 8 8 7 7 7 8 8 8 6 6 6 6 6 6 6 6 5 5 6 6 8 7 6 8 14 15 15 17 11 7 7 7 8 7 7 6 5 6 7 8 11 9 10 13 18 16 14 10 9 8 8 8 7 6 5
10 9 9 9 8 6 9 10 10 13 9 8 6 5 7 8 8 5 6 10 10 9 6 4 4 5 5 5 6 7 7 7 8 6 6 7 5 5 6 6 5 6 6 5 5 5 6 5 5 6 6 6 6 6 10 15 15 15 12 7 6 8 9 9 8 9 8 6 7 7 8 10 14 18 18 16 14 12 9 7 7 7 7 6 5
8 9 9 9 11 9 10 11 10 11 9 6 5 6 9 8 7 6 11 10 6 4 4 4 3 3 3 3 3 4 6 4 5 6 5 4 5 6 6 6 6 5 5 5 5 4 5 4 4 4 4 4 5 5 7 12 13 11 14 10 6 6 7 8 7 8 8 8 7 6 6 11 16 18 17 16 14 12 10 7 6 6 5 6 7
8 8 6 7 10 11 12 12 7 7 7 6 6 8 9 8 7 11 11 4 3 3 2 2 2 2 1 1 1 1 2 3 4 5 6 5 3 5 6 6 6 6 7 6 5 4 5 4 3 3 4 4 4 7 5 9 12 13 13 12 7 7 9 9 8 7 7 7 8 7 7 12 17 16 16 15 15 13 12 7 6 8 9 12 7
14 16 14 10 11 13 13 13 11 7 5 5 5 9 10 8 10 10 5 3 2 2 2 2 2 2 2 2 2 3 4 3 5 5 7 6 5 6 5 6 7 7 7 7 6 6 6 5 4 2 2 3 4 4 8 7 11 14 14 12 13 9 15 10 10 9 8 7 6 7 8 15 16 16 15 14 13 15 11 7 11 11 14 15 10
8 6 9 9 11 12 13 11 9 7 5 4 4 8 9 9 11 5 2 0 1 3 3 3 3 3 3 3 4 4 4 4 5 6 7 8 7 7 7 6 7 7 7 6 5 5 5 5 5 3 2 2 2 3 6 8 9 13 13 13 14 15 14 7 8 9 8 9 8 8 10 16 16 16 15 14 14 11 8 12 12 14 13 9 6
12 10 7 6 8 11 13 15 12 7 5 4 3 6 9 9 6 0 1 1 2 3 4 4 3 3 4 4 4 4 4 4 4 6 7 6 7 7 7 5 7 6 6 6 6 5 5 5 5 5 3 3 3 4 4 7 10 11 13 14 14 15 14 13 8 6 9 8 11 17 18 17 17 16 16 15 12 12 14 13 13 12 9 6 6
11 10 6 6 8 9 10 12 15 7 6 4 4 4 9 8 2 1 1 1 2 3 3 4 4 4 4 5 6 5 4 4 4 3 4 4 6 6 7 6 6 6 6 7 7 6 6 5 5 4 4 4 4 4 5 6 7 9 10 14 14 13 13 12 11 10 13 18 20 20 21 20 17 14 9 7 7 8 13 14 13 10 6 7 6
13 13 9 10 6 10 11 11 13 10 5 5 4 5 7 5 3 2 1 2 3 3 3 3 4 4 4 5 7 6 5 5 4 4 4 4 5 5 6 6 6 7 7 6 7 7 6 6 6 5 5 5 5 5 6 6 6 7 7 9 11 11 15 15 11 12 14 13 16 13 10 11 10 13 12 10 9 10 9 7 6 5 6 5 5
9 10 9 8 9 10 11 10 11 10 5 5 4 5 5 3 2 1 2 3 3 3 4 4 4 3 4 5 6 7 7 6 5 6 6 5 4 5 6 7 7 8 9 8 7 7 7 7 7 6 6 6 6 6 7 7 8 8 8 8 8 9 9 9 10 9 9 10 10 12 13 8 8 8 7 6 6 5 6 6 6 5 5 7 8
13 10 7 9 10 12 11 10 12 7 4 4 5 5 4 4 2 1 3 4 4 3 3 4 4 4 4 4 5 5 6 6 6 5 3 3 6 6 6 4 3 4 6 8 8 6 6 6 7 8 9 7 6 7 6 7 9 11 10 10 9 8 8 8 11 15 11 9 8 8 8 8 7 8 7 7 6 5 5 5 5 5 6 7 6
12 8 8 8 9 9 12 12 11 6 4 3 4 4 4 3 2 2 3 5 4 5 4 4 4 4 5 5 5 6 6 6 6 6 6 6 6 6 3 5 4 6 8 6 8 6 7 7 7 5 6 10 10 7 12 17 17 16 14 13 12 13 12 12 16 19 12 9 8 8 7 8 8 7 8 7 7 6 6 6 5 5 6 6 5
14 13 15 12 10 8 8 11 10 5 5 3 3 3 3 3 3 3 3 4 5 6 5 4 5 5 6 6 6 7 6 6 6 7 6 7 7 6 9 8 7 8 9 11 9 12 14 11 10 8 4 6 11 15 17 17 18 17 16 16 16 16 17 20 19 12 7 8 8 8 7 6 7 7 8 8 7 7 6 6 6 6 6 6 5
Wind_Direction
227 211 212 208 204 200 195 185 191 193 191 187 189 191 188 187 181 193 195 185 182 183 186 188 194 196 201 201 205 190 186 190 199 199 194 194 188 186 185 189 190 195 194 182 196 189 188 183 179 180 181 176 174 175 172 175 176 175 167 163 154 150 152 156 153 134 125 82 52 66 56 52 84 93 102 107 118 138 135 122 123 99 102 98 93
251 230 230 229 219 205 189 183 178 183 204 190 192 195 193 185 187 194 185 188 192 191 190 192 197 199 195 203 197 182 182 184 199 200 198 193 190 185 182 187 192 197 200 191 193 190 187 183 184 185 182 184 182 181 178 177 174 170 156 151 167 159 162 170 169 136 152 160 147 133 32 40 67 76 92 91 117 144 147 134 136 130 128 130 99
247 240 220 205 206 199 189 192 195 197 195 196 199 189 189 190 196 192 191 191 197 193 186 198 199 197 194 192 182 183 211 194 182 188 189 192 196 191 188 188 193 199 200 198 198 196 190 183 187 182 187 179 173 170 177 179 180 174 170 164 162 170 153 175 182 197 136 121 111 107 185 146 263 57 324 188 156 146 148 148 153 143 153 151 133
242 235 228 209 196 191 189 197 203 194 185 194 196 195 195 198 196 193 194 197 196 195 197 195 173 147 134 126 160 164 189 179 179 163 187 188 204 197 200 192 198 202 198 202 201 203 195 190 184 183 184 181 181 171 171 180 180 183 177 171 161 156 169 184 197 185 144 140 167 196 163 143 147 235 189 227 174 164 157 169 160 163 162 151 131
234 242 243 191 183 194 196 200 180 188 192 191 187 188 194 199 199 191 190 195 194 183 174 148 124 124 107 69 93 100 51 155 183 217 199 197 194 203 207 190 201 208 204 202 210 202 196 192 184 184 180 183 187 183 178 180 180 182 180 171 173 169 171 181 196 202 191 214 137 131 97 241 225 169 139 232 166 172 209 176 177 167 166 168 161
217 222 212 195 194 195 203 187 188 198 199 203 195 193 187 191 187 181 179 183 186 174 166 156 166 164 160 163 175 188 200 188 202 208 198 199 205 194 197 198 199 206 205 214 205 204 201 193 190 183 185 185 189 187 181 177 185 183 185 178 183 185 170 171 191 211 206 219 236 263 180 178 182 180 139 212 154 223 183 195 185 186 173 165 171
255 274 230 179 208 191 205 197 197 197 214 190 187 192 189 183 187 184 183 184 180 174 166 165 171 179 185 192 194 197 203 221 224 217 201 215 185 195 202 199 200 207 215 210 210 204 195 190 191 188 185 186 187 184 186 188 187 189 184 186 188 180 174 181 187 193 197 241 239 246 261 248 143 142 188 90 174 252 232 196 216 202 185 166 174
215 227 202 203 192 192 199 200 195 207 197 176 192 190 189 191 185 187 183 182 183 172 175 177 179 184 188 195 196 200 205 209 194 202 187 182 199 208 200 208 205 205 207 220 219 199 194 191 186 190 192 186 181 191 191 187 184 191 190 194 185 186 183 186 188 181 186 212 214 225 268 140 172 77 152 166 150 163 212 259 277 210 197 196 181
200 209 211 195 198 205 199 196 211 199 180 191 192 196 194 190 188 183 186 183 186 179 178 185 184 185 189 191 203 213 205 204 186 190 185 180 194 204 200 208 215 218 212 215 218 219 200 189 190 194 195 192 181 189 193 185 184 182 185 189 190 193 195 197 183 190 196 207 181 214 187 162 176 47 129 105 143 133 161 186 196 237 253 226 205
218 224 202 194 204 202 198 189 182 201 197 192 197 188 193 188 188 187 194 187 185 184 182 186 187 181 190 198 204 204 197 197 180 197 197 187 203 200 201 202 209 217 222 221 223 219 213 199 187 192 199 195 188 189 187 188 190 189 189 192 193 195 198 196 196 195 200 204 197 187 173 133 134 117 182 161 69 117 159 190 189 180 196 216 188
114 109 103 127 213 186 162 176 196 194 194 187 190 194 192 189 190 194 198 189 186 186 183 188 187 188 197 198 202 201 195 189 193 206 198 201 210 211 207 210 205 217 217 219 223 220 217 209 199 196 195 194 191 193 191 191 192 192 193 196 196 196 197 199 207 206 199 202 194 186 191 177 179 184 184 189 166 146 111 169 176 194 199 176 218
173 142 146 122 106 103 146 180 188 193 189 198 197 191 191 194 189 195 202 196 190 186 186 188 188 196 200 195 202 201 190 196 203 206 199 204 206 210 211 209 211 212 213 217 216 217 214 215 207 197 197 194 197 197 195 194 194 193 191 191 194 200 201 199 200 200 194 197 201 197 203 210 236 222 193 179 181 169 162 159 169 133 99 224 262
201 188 187 210 190 188 188 194 179 189 197 201 202 194 192 193 194 193 208 200 194 186 190 190 192 198 198 199 202 195 198 202 206 210 201 205 202 206 201 212 206 210 211 210 216 209 210 211 207 199 199 200 195 195 197 193 189 190 188 188 192 194 197 195 196 201 194 194 202 203 202 202 214 213 173 186 176 132 138 124 137 151 158 180 233
239 224 218 225 233 236 227 210 199 196 201 199 197 194 196 199 199 200 209 200 196 191 191 194 202 199 198 199 199 193 203 203 209 209 207 207 200 206 205 205 205 210 206 213 208 208 212 213 205 207 202 195 193 198 196 193 189 190 191 192 195 199 197 199 204 204 203 204 199 197 201 205 208 191 187 177 164 148 152 151 144 134 131 164 206
231 225 222 222 237 238 239 231 227 218 205 200 198 200 197 205 203 207 208 208 201 200 196 201 201 201 201 201 200 198 204 206 211 207 204 205 205 208 210 206 209 207 206 208 202 205 212 213 210 206 204 197 194 197 198 198 198 195 191 194 196 193 196 198 208 206 207 208 207 204 203 202 201 188 185 192 169 174 159 153 146 139 88 113 175
239 231 238 232 222 224 227 236 236 238 229 215 210 205 205 209 208 210 208 204 205 204 206 202 203 200 202 204 205 202 205 209 214 210 212 204 206 206 209 207 210 203 201 191 198 199 209 213 209 209 202 199 197 198 195 192 191 191 193 194 196 191 194 198 205 205 210 209 207 204 201 209 199 191 192 183 182 178 162 158 158 158 150 168 190
240 230 231 240 252 251 236 233 232 226 220 215 213 206 207 206 207 214 215 211 211 211 208 204 203 200 207 207 205 206 207 209 212 212 209 208 207 208 208 208 203 198 197 191 190 195 202 210 213 212 207 200 199 201 196 195 192 192 191 191 196 192 194 204 204 204 210 204 206 205 208 203 200 194 191 184 182 180 174 170 169 168 167 148 167
251 247 244 237 229 230 230 229 224 217 215 218 218 212 214 211 211 213 212 214 216 210 210 206 203 206 207 208 210 210 211 216 215 214 206 206 211 206 206 204 204 198 192 190 187 190 196 203 210 213 212 206 204 199 196 193 189 195 196 195 196 186 197 203 203 202 205 192 193 192 195 191 189 188 195 191 184 184 180 180 179 172 159 161 163
261 260 268 264 249 240 233 231 225 221 222 222 218 211 216 220 221 218 219 218 214 213 215 217 208 208 206 207 208 212 215 217 217 212 205 213 215 208 205 205 196 193 192 186 188 188 189 195 201 210 210 213 212 209 201 194 188 189 193 189 182 176 188 200 203 196 194 180 184 189 185 187 177 180 171 170 174 168 175 173 171 161 174 152 155
295 266 260 259 262 257 245 234 225 221 220 218 212 209 220 221 221 228 239 233 224 220 214 215 212 208 209 205 213 211 211 212 209 204 212 216 218 214 213 202 200 189 195 188 190 188 186 190 196 199 203 207 208 211 200 197 195 197 185 184 188 181 189 196 194 193 178 183 178 180 181 177 169 152 153 156 154 154 153 159 163 164 160 151 145
223 239 259 265 257 263 265 258 252 258 243 211 210 218 225 223 229 226 228 229 226 226 217 222 207 214 204 209 208 204 210 207 211 211 215 217 214 211 213 212 189 200 184 193 195 192 189 190 189 195 199 199 200 201 199 192 196 196 190 191 184 188 191 195 180 184 178 175 177 176 178 177 162 155 157 148 145 151 150 147 147 138 138 155 138
337 310 255 255 265 274 276 271 270 252 249 238 232 227 239 234 233 235 238 236 228 227 222 223 217 213 210 212 207 203 203 203 209 214 218 215 212 209 206 205 211 208 188 192 193 189 190 189 190 195 197 196 198 198 191 188 191 196 199 193 187 186 189 184 178 183 177 181 174 170 174 169 173 155 151 154 155 153 151 144 152 143 144 148 148
300 303 313 330 287 246 245 234 229 222 228 229 235 221 226 229 231 233 231 239 230 240 247 249 241 231 223 214 203 205 199 206 209 214 216 211 210 208 195 202 210 210 207 194 187 185 187 188 193 195 191 192 194 194 190 188 197 198 198 197 191 186 185 179 183 187 180 172 171 173 171 165 157 147 155 152 149 151 153 152 150 142 133 133 127
298 292 311 307 295 291 277 252 246 242 230 226 224 223 226 229 230 232 235 237 225 224 223 229 236 243 246 231 219 209 201 207 212 212 211 207 202 203 192 202 204 199 203 208 188 184 184 188 193 192 190 189 189 190 187 195 198 198 198 197 193 195 190 185 188 185 177 174 178 172 174 169 163 155 155 149 147 143 140 136 135 131 124 123 119
312 310 312 313 314 289 262 245 239 238 239 230 224 223 221 227 222 226 234 229 222 210 210 223 224 232 233 232 234 220 213 212 214 204 209 197 201 198 194 198 192 200 206 193 198 183 184 187 192 190 188 191 192 188 190 197 202 202 201 196 192 192 191 190 189 185 179 178 178 178 170 167 164 156 154 153 157 154 145 144 145 141 129 128 119
290 299 306 292 270 277 282 258 245 237 229 227 226 226 229 229 226 219 226 221 220 204 214 218 221 222 226 227 231 227 226 219 211 206 200 194 194 196 195 199 185 194 196 199 189 189 188 190 192 192 191 195 191 191 195 198 199 196 194 193 190 188 189 188 187 178 175 176 174 171 165 164 164 160 160 152 149 146 138 141 138 131 124 119 118
280 272 266 277 285 269 260 269 254 245 234 231 228 231 232 234 240 229 222 218 217 210 218 218 218 218 226 229 226 227 230 229 219 210 193 191 193 193 191 196 187 192 189 191 198 191 195 189 193 189 193 191 191 193 198 198 193 189 189 189 188 187 185 186 187 178 173 172 170 165 165 168 167 163 158 162 161 158 149 149 149 144 142 135 132
263 267 264 257 259 275 285 279 280 270 266 260 244 238 236 232 241 233 221 218 220 214 218 219 216 220 226 231 227 222 226 228 224 212 204 198 192 192 194 187 179 191 191 191 190 192 194 192 191 190 191 186 186 192 196 193 188 187 188 191 185 181 180 182 181 178 174 174 172 168 169 172 170 164 159 161 162 157 148 147 157 147 148 139 141
269 260 263 266 264 261 266 271 271 278 281 280 279 269 248 243 241 236 222 227 216 201 209 209 214 222 228 231 222 217 217 219 214 211 208 202 194 192 189 186 187 193 190 192 187 186 186 196 191 188 185 182 186 193 191 189 187 189 190 188 184 181 178 177 172 172 177 175 169 169 172 175 170 166 168 167 166 159 154 154 160 151 147 143 145
269 261 255 260 269 278 279 278 281 278 277 277 275 270 262 252 251 237 227 234 192 218 214 216 213 216 226 225 214 213 211 210 210 211 208 197 190 188 186 191 194 191 188 182 181 189 193 192 188 189 185 186 194 195 194 190 186 183 184 184 177 179 176 173 169 168 174 179 178 174 175 169 164 167 171 167 159 160 161 156 159 157 151 149 156
278 278 272 262 261 265 270 277 277 279 276 274 273 269 267 260 256 248 236 228 196 217 214 218 226 229 221 203 203 215 204 210 213 207 202 195 190 182 185 191 189 185 185 179 178 189 193 192 192 188 189 195 198 198 192 187 186 181 179 179 178 177 173 171 173 172 176 177 172 166 160 162 162 164 165 164 162 152 158 155 158 161 162 156 156
280 271 266 270 267 264 266 267 272 276 277 277 276 273 271 263 253 248 246 220 198 216 219 222 228 231 229 213 209 203 203 215 205 210 200 193 182 184 189 188 183 185 185 175 185 189 189 190 191 193 195 197 201 196 186 186 180 174 172 177 176 173 175 177 177 176 173 166 160 154 156 161 167 162 156 161 161 160 158 157 159 158 161 162 159
293 290 285 279 279 279 281 283 281 278 277 273 270 277 276 270 269 256 245 201 214 219 223 229 229 224 221 218 213 205 210 210 211 202 189 182 187 190 193 185 191 188 172 181 189 183 192 189 188 191 198 198 202 195 187 187 189 181 172 172 175 178 176 179 176 174 166 162 157 152 150 157 159 161 161 164 161 161 162 154 154 152 155 156 149
309 308 308 309 309 309 303 290 279 278 277 278 283 272 271 274 273 282 246 226 216 226 220 231 229 226 222 213 207 209 213 211 195 187 184 187 187 196 191 190 180 172 181 186 185 188 187 189 189 190 194 196 195 191 191 192 191 187 180 171 182 180 180 177 177 173 166 163 162 158 156 156 160 169 168 158 149 150 147 146 146 144 146 152 149
324 321 321 322 320 315 318 317 311 297 285 290 288 272 277 285 280 279 260 243 230 230 230 231 232 230 218 213 209 208 211 201 190 186 187 191 190 185 183 184 180 183 183 185 184 187 191 188 189 187 186 187 191 185 188 187 186 186 184 172 175 172 173 177 175 173 170 167 163 161 160 160 164 163 167 157 149 148 145 142 139 135 126 120 102
309 302 300 306 310 307 303 300 296 300 292 275 268 281 286 272 281 256 260 242 237 231 235 226 229 222 217 212 204 208 206 194 187 187 189 191 185 182 184 180 178 184 184 173 183 182 181 182 182 178 175 185 183 183 184 185 185 190 182 170 175 176 176 175 172 170 168 164 163 162 160 161 161 162 160 153 147 143 140 139 135 124 111 104 116
302 297 292 293 285 291 295 298 302 301 299 293 286 282 271 278 277 260 247 247 232 237 237 228 227 217 213 206 203 201 201 192 187 187 192 187 178 181 182 167 171 177 175 179 181 178 179 176 175 179 177 180 179 184 178 177 180 188 166 169 166 169 168 169 169 162 164 163 164 165 160 159 157 159 162 157 151 138 134 133 131 126 128 132 160
295 295 286 290 297 303 303 302 301 299 290 291 290 282 275 272 268 263 247 247 233 240 238 234 235 222 210 200 199 194 193 190 186 192 188 182 180 176 174 172 173 174 179 181 170 168 174 177 176 180 180 175 183 185 183 183 182 192 181 169 163 157 161 156 151 152 153 161 166 162 157 157 156 157 161 155 147 132 130 134 131 132 139 150 182
300 301 305 303 300 296 293 303 304 302 300 306 288 274 269 267 264 259 245 248 243 247 241 233 234 214 205 196 190 189 188 185 187 187 178 177 180 178 168 166 168 163 168 159 160 161 165 170 175 170 169 170 176 186 186 187 187 194 177 168 161 155 152 156 148 143 142 152 156 159 159 165 159 157 156 148 139 126 132 136 136 139 149 158 178
311 307 302 295 284 295 303 301 298 293 300 298 283 272 263 263 265 252 248 245 246 245 249 243 229 212 206 195 190 187 185 180 184 177 176 175 154 139 150 154 155 150 149 154 156 158 159 163 160 162 172 174 172 183 187 190 189 191 162 158 153 155 159 154 151 146 141 144 150 151 154 160 152 150 148 140 133 129 128 133 138 143 149 164 172
302 303 308 311 313 311 298 292 291 295 301 301 291 278 270 265 264 258 248 244 251 258 238 231 216 204 202 204 199 189 180 180 168 163 150 136 143 144 141 141 140 135 133 138 141 142 136 135 148 152 153 160 167 172 187 185 189 172 154 147 157 150 142 140 143 147 150 148 147 146 147 156 152 147 144 139 136 129 126 132 144 151 162 166 151
316 313 320 318 315 314 314 312 309 299 299 308 306 286 275 276 269 255 256 274 247 221 201 175 168 172 163 143 144 96 123 133 118 119 119 116 109 125 138 135 132 136 137 134 129 128 125 120 115 128 145 159 176 170 170 183 185 163 151 142 142 149 149 140 141 151 152 151 150 145 146 150 140 135 140 144 143 140 140 138 155 160 161 142 137
323 325 326 334 322 318 316 311 315 316 309 310 312 286 284 284 269 268 291 267 181 137 122 116 105 99 92 96 96 113 109 112 122 127 128 127 129 126 128 130 133 133 133 134 133 132 130 125 112 98 117 155 165 169 163 167 169 158 151 149 144 142 154 146 149 156 160 146 131 132 133 132 130 137 141 143 149 149 144 154 153 142 133 128 128
293 278 296 318 313 310 311 307 308 307 312 312 301 282 283 283 273 300 306 21 96 103 109 106 102 99 95 93 104 104 106 118 128 128 131 135 140 138 134 140 138 137 137 133 133 129 126 129 124 114 94 82 118 143 160 153 154 150 147 149 148 149 153 155 155 153 143 140 135 136 135 134 137 141 144 145 133 128 142 144 137 127 120 113 107
300 298 297 301 295 299 304 307 307 307 298 299 290 278 284 274 277 310 257 152 107 106 109 113 110 109 104 101 94 99 111 116 130 136 135 140 138 139 132 141 135 135 138 136 140 138 136 136 127 128 114 98 100 118 120 139 141 146 143 144 145 146 145 131 116 122 130 137 141 139 139 139 140 142 141 137 128 132 129 134 129 115 109 109 112
301 303 302 290 294 294 297 299 303 304 295 298 296 271 272 266 273 264 228 144 126 116 117 126 122 119 121 116 105 88 89 95 97 99 124 140 142 141 137 142 137 138 139 140 141 138 134 131 129 121 117 108 110 106 114 118 123 122 126 129 125 121 119 114 120 127 130 129 132 135 136 137 138 135 124 115 119 122 124 122 116 110 106 115 124
304 300 313 310 305 301 298 300 299 305 304 295 301 286 264 270 235 217 172 140 135 132 128 128 128 126 120 119 119 119 112 102 101 98 109 123 131 135 138 137 140 140 139 142 141 142 140 137 138 134 126 120 113 116 116 116 116 117 112 112 113 114 116 115 116 123 121 124 127 127 128 122 118 121 121 123 114 113 108 101 101 106 108 117 118
292 296 303 298 295 291 292 294 292 296 301 296 298 286 286 272 246 199 156 134 137 150 149 151 143 136 131 130 126 130 126 122 123 128 128 126 133 145 145 154 161 158 153 153 152 153 154 152 146 143 138 125 122 127 137 136 133 123 121 118 118 122 125 127 123 118 114 117 118 122 118 108 114 107 108 91 90 100 116 119 109 112 117 107 96
305 305 302 294 299 297 290 288 284 286 289 298 292 293 301 285 263 214 163 143 146 139 139 144 149 137 137 134 130 128 126 123 119 109 101 134 156 154 145 128 119 151 158 155 153 149 150 151 149 152 146 141 142 150 157 143 135 136 134 135 131 130 126 122 129 124 113 106 106 110 118 123 129 132 124 123 128 127 117 116 118 118 105 101 110
302 302 293 289 281 277 285 286 281 282 277 272 282 287 292 278 248 216 179 157 155 146 152 164 159 150 146 138 130 126 127 127 126 121 112 81 67 85 101 129 133 123 118 127 140 150 153 146 148 166 164 159 165 155 146 143 140 137 132 130 130 132 133 132 137 132 128 126 131 135 143 144 143 139 144 150 154 149 139 135 146 127 117 119 130
310 314 308 299 290 281 278 279 278 278 272 259 254 271 279 274 236 217 195 180 164 162 162 165 165 169 163 151 146 143 144 137 134 133 127 121 110 81 87 106 121 127 133 136 138 137 144 151 151 152 149 127 139 144 150 146 143 140 136 139 140 140 140 142 137 122 110 134 143 147 150 149 150 151 159 162 157 153 159 154 147 145 153 149 148